Flag for France Weather past 2 weeks in Marseille, France

Now
70 °F

Clear.


Feels Like: 70 °F
Forecast: 61 / 76 °F
Wind: 9 mph from North

Location: Marseille / Marignane

Current Time: Sep 22, 2014 at 2:12:55 AM

Latest Report: Sep 22, 2014 at 1:30 AM


Visibility: N/A

Pressure: 29.98 "Hg

Humidity: 69%

Dew point: 59 °F

Location of MarseilleLocation

Historic Weather in Marseille — Graph

°F

Marseille temperature yesterday

Maximum temperature yesterday: 82 °F (at 4:30 PM)
Minimum temperature yesterday: 68 °F (at 7:00 AM)
Average temperature yesterday: 73 °F

Past Weeks' High & Low Weather Summary

 TemperatureHumidityPressure
High86 °F (Sep 10, 4:00 PM)94% (Sep 8, 1:30 AM)30.04 "Hg (Sep 8, 1:30 AM)
Low57 °F (Sep 13, 7:30 AM)23% (Sep 11, 5:30 PM)29.77 "Hg (Sep 10, 6:00 PM)
Average74 °F67%29.92 "Hg
* Reported Sep 7 1:00 AM — Sep 22 1:00 AM, Marseille, Weather by CustomWeather, © 2014

Note: Actual official high and low records may vary slightly from our data, if they occured in-between our weather recording intervals... More about our weather records

Advertising

Marseille weather history for previous 24 hours

 ConditionsComfort  
Time TempWeatherWind HumidityBarometerVisibility
1:00 AM
Sep 22
70 °FPassing clouds.9 mph69%29.98 "HgN/A
12:30 AM72 °FClear.10 mph65%29.98 "Hg10 mi
12:00 AM72 °FClear.7 mph65%29.98 "Hg10 mi
11:30 PM
Sep 21
72 °FClear.6 mph65%29.98 "Hg10 mi
11:00 PM72 °FClear.5 mph69%29.98 "Hg10 mi
10:30 PM72 °FClear.3 mph69%29.98 "Hg10 mi
10:00 PM73 °FClear.8 mph69%29.98 "Hg10 mi
9:30 PM73 °FClear.9 mph69%29.98 "Hg10 mi
9:00 PM73 °FClear.9 mph78%29.98 "Hg10 mi
8:30 PM75 °FPartly sunny.9 mph69%29.98 "HgN/A
8:00 PM75 °FScattered clouds.12 mph69%29.98 "HgN/A
7:30 PM77 °FPartly sunny.8 mph65%29.98 "HgN/A
7:00 PM79 °FScattered clouds.10 mph54%29.95 "HgN/A
6:30 PM81 °FScattered clouds.10 mph62%29.98 "HgN/A
6:00 PM81 °FScattered clouds.10 mph58%29.95 "HgN/A
5:00 PM81 °FPartly sunny.9 mph58%29.98 "HgN/A
4:30 PM82 °FPartly sunny.10 mph51%29.98 "HgN/A
4:00 PM81 °FPartly sunny.5 mph58%29.98 "HgN/A
3:30 PM79 °FPartly sunny.5 mph61%29.98 "HgN/A
3:00 PM79 °FPartly sunny.5 mph65%29.98 "HgN/A
2:00 PM75 °FPartly sunny.6 mph78%30.01 "HgN/A
1:30 PM75 °FPassing clouds.7 mph74%30.01 "HgN/A
1:00 PM73 °FScattered clouds.5 mph78%30.01 "HgN/A
12:30 PM73 °FPartly sunny.5 mph83%30.04 "HgN/A
12:00 PM72 °FPartly sunny.6 mph83%30.01 "HgN/A
11:30 AM72 °FLow clouds.5 mph83%30.01 "HgN/A
11:00 AM72 °FLow clouds.6 mph83%30.04 "Hg6 mi
10:30 AM70 °FLow clouds.8 mph88%30.04 "Hg6 mi
10:00 AM70 °FPartly sunny.7 mph88%30.01 "HgN/A
9:30 AM70 °FPartly sunny.2 mph88%30.01 "HgN/A
9:00 AM68 °FPartly sunny.6 mph94%30.01 "HgN/A
8:30 AM68 °FBroken clouds.5 mph88%30.01 "Hg5 mi
8:00 AM68 °FPassing clouds.3 mph94%30.01 "Hg4 mi
7:30 AM68 °FFog.7 mph94%30.01 "Hg2 mi
7:00 AM68 °FFog.6 mph94%30.01 "Hg1 mi
6:30 AM70 °FFog.7 mph94%30.01 "Hg1 mi
6:00 AM70 °FFog.10 mph94%30.04 "Hg1 mi
5:30 AM70 °FFog.3 mph94%30.04 "Hg0 mi
5:00 AM70 °FFog.No wind88%30.01 "Hg2 mi
4:30 AM70 °FFog.3 mph88%30.01 "Hg2 mi
4:00 AM70 °FFog.1 mph88%30.01 "Hg2 mi
3:30 AM70 °FFog.No wind88%30.01 "Hg2 mi
3:00 AM70 °FFog.No wind94%30.01 "Hg3 mi
2:30 AM70 °FLow clouds.No wind88%30.04 "Hg4 mi
2:00 AM70 °FPassing clouds.2 mph88%30.04 "Hg4 mi
Weather by CustomWeather, © 2014

See weather overviewHow to use our weather pages